Quantico, VA

3:30 PM EST on November 17, 2019 (GMT -0500)
Quantico Marine Corps Air Facility

Weather History for KNYG - October, 2019

Change the Weather History Date:

Sunday, October 13, 2019

  Actual Average Record
Temperature  
Mean Temperature 60 °F -  
Max Temperature 66 °F 66 °F 80 °F (2015)
Min Temperature 55 °F 47 °F 36 °F (2006)
Degree Days  
Heating Degree Days 6    
Growing Degree Days 10 (Base 50)    
Moisture  
Dew Point 46 °F    
Average Humidity 59    
Maximum Humidity 83    
Minimum Humidity 44    
Precipitation  
Precipitation 0.01 in - - ()
Sea Level Pressure  
Sea Level Pressure 30.07 in    
Wind  
Wind Speed 7 mph (NE)    
Max Wind Speed 12 mph    
Max Gust Speed -    
Visibility 10 miles    
Events      
Averages and records for this station are not official NWS values.
T = Trace of Precipitation, MM = Missing Value Source: NWS Daily Summary

Daily Weather History Graph

Daily Weather History Graph

Search for Another Location

Airport or City:

Astronomy

Oct. 13, 2019 Rise Set
Actual Time 7:16 AM EDT 6:34 PM EDT
Civil Twilight 6:49 AM EDT 7:00 PM EDT
Nautical Twilight 6:18 AM EDT 7:31 PM EDT
Astronomical Twilight 5:48 AM EDT 8:02 PM EDT
Moon 6:55 PM EDT (10/13) 6:49 AM EDT (10/13)
Length of Visible Light 12h 11m
Length of Day
11h 18m
Full, 100% of the Moon is Illuminated
Oct 13
Full
Oct 13
Full
Oct 21
Last Quarter
Oct 27
New
Nov 4
First Quarter

Hourly Weather History & Observations

Time (EDT) Temp. Dew Point Humidity Pressure Visibility Wind Dir Wind Speed Gust Speed Precip Events Conditions
12:56 AM 60.1 °F 44.1 °F 55% 30.07 in 10.0 mi North 8.1 mph - N/A   Clear
1:56 AM 60.1 °F 41.0 °F 49% 30.09 in 10.0 mi NNE 11.5 mph - N/A   Mostly Cloudy
2:56 AM 59.0 °F 41.0 °F 51% 30.09 in 10.0 mi NNE 10.4 mph - N/A   Mostly Cloudy
3:56 AM 57.9 °F 42.1 °F 56% 30.10 in 10.0 mi NNE 10.4 mph - 0.00 in   Overcast
4:56 AM 57.9 °F 41.0 °F 53% 30.11 in 10.0 mi NNE 8.1 mph - 0.00 in   Overcast
5:56 AM 57.0 °F 41.0 °F 55% 30.11 in 10.0 mi NNE 8.1 mph - 0.00 in   Overcast
6:56 AM 55.9 °F 42.1 °F 60% 30.13 in 10.0 mi North 5.8 mph - 0.01 in   Mostly Cloudy
7:56 AM 57.0 °F 43.0 °F 59% 30.12 in 10.0 mi NNE 9.2 mph - N/A   Mostly Cloudy
8:56 AM 59.0 °F 44.1 °F 58% 30.14 in 10.0 mi ENE 5.8 mph - N/A   Mostly Cloudy
9:56 AM 61.0 °F 43.0 °F 52% 30.14 in 10.0 mi ENE 8.1 mph - N/A   Mostly Cloudy
10:56 AM 62.1 °F 41.0 °F 46% 30.13 in 10.0 mi Variable 5.8 mph - N/A   Overcast
11:56 AM 62.1 °F 39.9 °F 44% 30.11 in 10.0 mi North 6.9 mph - N/A   Overcast
12:56 PM 63.0 °F 42.1 °F 46% 30.11 in 10.0 mi Calm Calm - 0.00 in   Overcast
1:56 PM 64.0 °F 43.0 °F 46% 30.07 in 10.0 mi SSW 4.6 mph - N/A   Overcast
2:56 PM 64.0 °F 43.0 °F 46% 30.06 in 10.0 mi Calm Calm - N/A   Overcast
3:56 PM 64.0 °F 46.0 °F 52% 30.05 in 10.0 mi Calm Calm - N/A   Overcast
4:56 PM 64.0 °F 50.0 °F 60% 30.04 in 10.0 mi South 3.5 mph - N/A   Overcast
5:56 PM 63.0 °F 51.1 °F 65% 30.03 in 10.0 mi South 4.6 mph - N/A   Overcast
6:56 PM 63.0 °F 51.1 °F 65% 30.03 in 10.0 mi Calm Calm - N/A   Overcast
7:49 PM 63.0 °F 52.0 °F 67% 30.03 in 10.0 mi Calm Calm - N/A   Overcast
7:56 PM 63.0 °F 51.1 °F 65% 30.03 in 10.0 mi North 4.6 mph - N/A   Overcast
8:56 PM 62.1 °F 53.1 °F 72% 30.04 in 10.0 mi SE 4.6 mph - N/A   Overcast
9:56 PM 62.1 °F 54.0 °F 75% 30.03 in 10.0 mi SE 4.6 mph - N/A   Overcast
10:56 PM 62.1 °F 53.1 °F 72% 30.02 in 10.0 mi Calm Calm - N/A   Overcast
11:14 PM 62.1 °F 53.1 °F 72% 30.02 in 10.0 mi Calm Calm - N/A   Overcast
11:56 PM 59.0 °F 54.0 °F 83% 30.03 in 10.0 mi WNW 4.6 mph - N/A   Mostly Cloudy